Weather History for Mount Pleasant, MI

Change the Weather History Date:

Wednesday, March 6, 2013

  Actual Average (KAMN) Record (KAMN)
Temperature  
Mean Temperature 33 °F -  
Max Temperature 38 °F 38 °F 63 °F (1973)
Min Temperature 28 °F 20 °F -6 °F (2014)
Degree Days  
Heating Degree Days 32    
Moisture  
Dew Point 28 °F    
Average Humidity 79    
Maximum Humidity 92    
Minimum Humidity 66    
Precipitation  
Precipitation 0.00 in - - ()
Sea Level Pressure  
Sea Level Pressure 30.10 in    
Wind  
Wind Speed 7 mph (NNE)    
Max Wind Speed 14 mph    
Max Gust Speed 18 mph    
Visibility 10 miles    
Events      
Averages and records for this station are not official NWS values.
T = Trace of Precipitation, MM = Missing Value Source: NWS Daily Summary

Daily Weather History Graph

Daily Weather History Graph

Search for Another Location

Airport:

Trip Planner

Search our weather history database for the weather conditions in past years. The results will help you decide how hot, cold, wet, or windy it might be!

Date:

Astronomy

Mar. 06, 2013 Rise Set
Actual Time 7:06 AM EST 6:34 PM EST
Civil Twilight 6:37 AM EST 7:03 PM EST
Nautical Twilight 6:04 AM EST 7:36 PM EST
Astronomical Twilight 5:31 AM EST 8:09 PM EST
Moon 3:22 AM EST (3/6) 1:07 PM EST (3/6)
Length of Visible Light 12h 25m
Length of Day
11h 27m
Waning Crescent, 30% of the Moon is Illuminated
Mar 6
Waning Crescent
Mar 11
New
Mar 19
First Quarter
Mar 27
Full
Apr 3
Last Quarter

Hourly Weather History & Observations

Time (EST) Temp. Windchill Dew Point Humidity Pressure Visibility Wind Dir Wind Speed Gust Speed Precip Events Conditions
12:15 AM 28.2 °F 19.5 °F 25.7 °F 90% 29.95 in 10.0 mi North 9.2 mph - N/A   Overcast
12:34 AM 28.4 °F 20.4 °F 26.1 °F 91% 29.95 in 10.0 mi North 8.1 mph - N/A   Overcast
12:55 AM 28.9 °F 21.1 °F 26.1 °F 89% 29.95 in 10.0 mi NNE 8.1 mph - N/A   Overcast
1:15 AM 29.1 °F 22.1 °F 26.1 °F 88% 29.95 in 10.0 mi NNE 6.9 mph - N/A   Overcast
1:34 AM 29.3 °F 22.3 °F 26.1 °F 88% 29.96 in 10.0 mi NNE 6.9 mph - N/A   Overcast
1:55 AM 29.8 °F 21.5 °F 26.1 °F 86% 29.96 in 10.0 mi NNE 9.2 mph - N/A   Overcast
2:15 AM 30.2 °F 23.4 °F 26.1 °F 85% 29.96 in 10.0 mi NNE 6.9 mph - N/A   Overcast
2:34 AM 30.2 °F 22.6 °F 26.1 °F 85% 29.96 in 10.0 mi North 8.1 mph - N/A   Overcast
2:55 AM 30.7 °F 24.1 °F 26.4 °F 84% 29.96 in 10.0 mi NNE 6.9 mph - N/A   Overcast
3:15 AM 31.1 °F 24.5 °F 26.6 °F 83% 29.96 in 10.0 mi North 6.9 mph - N/A   Overcast
3:34 AM 31.1 °F 24.5 °F 26.6 °F 83% 29.97 in 10.0 mi NNE 6.9 mph - N/A   Overcast
3:55 AM 31.6 °F 23.1 °F 26.8 °F 82% 29.97 in 10.0 mi NNE 10.4 mph - N/A   Overcast
4:15 AM 32.0 °F 23.6 °F 26.6 °F 80% 29.98 in 10.0 mi NE 10.4 mph - N/A   Overcast
4:34 AM 32.0 °F 23.0 °F 26.6 °F 80% 29.98 in 10.0 mi NNE 11.5 mph 16.1 mph N/A   Overcast
4:55 AM 32.0 °F 24.2 °F 26.6 °F 80% 29.99 in 10.0 mi NE 9.2 mph - N/A   Overcast
5:15 AM 32.0 °F 23.0 °F 26.4 °F 80% 30.00 in 10.0 mi NE 11.5 mph 18.4 mph N/A   Overcast
5:34 AM 32.0 °F 24.2 °F 26.2 °F 79% 30.01 in 10.0 mi NE 9.2 mph 17.3 mph N/A   Overcast
5:55 AM 32.0 °F 23.6 °F 26.2 °F 79% 30.02 in 10.0 mi NNE 10.4 mph - N/A   Overcast
6:15 AM 31.6 °F 24.4 °F 26.1 °F 80% 30.03 in 10.0 mi NE 8.1 mph - N/A   Mostly Cloudy
6:34 AM 30.7 °F 24.1 °F 25.9 °F 82% 30.04 in 10.0 mi NNE 6.9 mph - N/A   Scattered Clouds
6:55 AM 30.2 °F 24.3 °F 25.7 °F 83% 30.05 in 10.0 mi NNE 5.8 mph - N/A   Scattered Clouds
7:15 AM 29.8 °F 23.9 °F 25.5 °F 84% 30.06 in 10.0 mi North 5.8 mph - N/A   Scattered Clouds
7:34 AM 30.2 °F 24.3 °F 26.1 °F 85% 30.08 in 10.0 mi NNE 5.8 mph - N/A   Mostly Cloudy
7:55 AM 31.1 °F 25.4 °F 26.6 °F 83% 30.09 in 10.0 mi NNE 5.8 mph - N/A   Overcast
8:15 AM 32.0 °F 24.2 °F 27.5 °F 83% 30.09 in 10.0 mi NNE 9.2 mph - N/A   Overcast
8:34 AM 32.2 °F 25.0 °F 28.2 °F 85% 30.10 in 10.0 mi NNE 8.1 mph - N/A   Overcast
8:55 AM 32.9 °F 26.7 °F 28.4 °F 84% 30.11 in 10.0 mi NNE 6.9 mph - N/A   Overcast
9:15 AM 33.3 °F 25.1 °F 28.6 °F 83% 30.11 in 10.0 mi NNE 10.4 mph - N/A   Overcast
9:34 AM 33.4 °F 24.8 °F 28.4 °F 82% 30.11 in 10.0 mi NE 11.5 mph 16.1 mph N/A   Overcast
9:55 AM 33.8 °F 25.3 °F 28.4 °F 81% 30.11 in 10.0 mi NE 11.5 mph - N/A   Overcast
10:15 AM 34.0 °F 26.0 °F 28.2 °F 79% 30.11 in 10.0 mi ENE 10.4 mph - N/A   Overcast
10:35 AM 34.3 °F 25.0 °F 28.2 °F 78% 30.11 in 10.0 mi ENE 13.8 mph - N/A   Overcast
10:55 AM 34.9 °F 27.7 °F 28.2 °F 77% 30.11 in 10.0 mi NE 9.2 mph - N/A   Overcast
11:14 AM 35.8 °F 29.4 °F 28.4 °F 75% 30.14 in 10.0 mi NNE 8.1 mph - N/A   Overcast
11:35 AM 36.0 °F 29.6 °F 28.0 °F 73% 30.14 in 10.0 mi NNE 8.1 mph - N/A   Overcast
11:55 AM 36.3 °F 30.8 °F 28.4 °F 73% 30.14 in 10.0 mi North 6.9 mph - N/A   Overcast
12:14 PM 36.5 °F 29.7 °F 28.2 °F 72% 30.15 in 10.0 mi North 9.2 mph - N/A   Overcast
12:35 PM 36.9 °F 32.2 °F 28.0 °F 70% 30.15 in 10.0 mi North 5.8 mph - N/A   Overcast
12:55 PM 37.2 °F 31.2 °F 28.4 °F 70% 30.14 in 10.0 mi NNE 8.1 mph - N/A   Overcast
1:14 PM 37.4 °F 31.4 °F 28.4 °F 70% 30.14 in 10.0 mi NNE 8.1 mph - N/A   Overcast
1:35 PM 37.9 °F 31.5 °F 28.4 °F 69% 30.13 in 10.0 mi North 9.2 mph - N/A   Mostly Cloudy
1:55 PM 37.9 °F 32.7 °F 28.2 °F 68% 30.13 in 10.0 mi North 6.9 mph - N/A   Mostly Cloudy
2:14 PM 38.3 °F 32.5 °F 28.0 °F 67% 30.12 in 10.0 mi North 8.1 mph - N/A   Mostly Cloudy
2:35 PM 38.5 °F 33.4 °F 28.4 °F 67% 30.12 in 10.0 mi North 6.9 mph - N/A   Overcast
2:55 PM 38.7 °F 35.2 °F 28.0 °F 66% 30.13 in 10.0 mi NNW 4.6 mph - N/A   Overcast
3:14 PM 38.5 °F 34.1 °F 28.0 °F 66% 30.13 in 10.0 mi North 5.8 mph - N/A   Overcast
3:35 PM 38.8 °F 35.4 °F 28.4 °F 66% 30.14 in 10.0 mi NNW 4.6 mph - N/A   Overcast
3:55 PM 38.7 °F 35.2 °F 28.2 °F 66% 30.14 in 10.0 mi NNW 4.6 mph - N/A   Overcast
4:14 PM 38.7 °F - 28.2 °F 66% 30.14 in 10.0 mi Calm Calm - N/A   Overcast
4:35 PM 38.7 °F 36.3 °F 28.2 °F 66% 30.15 in 10.0 mi NNW 3.5 mph - N/A   Overcast
4:55 PM 38.7 °F 36.3 °F 28.0 °F 66% 30.15 in 10.0 mi NNW 3.5 mph - N/A   Mostly Cloudy
5:14 PM 38.5 °F - 28.0 °F 66% 30.15 in 10.0 mi Calm Calm - N/A   Mostly Cloudy
5:35 PM 38.3 °F 35.9 °F 28.2 °F 67% 30.15 in 10.0 mi NNE 3.5 mph - N/A   Overcast
5:55 PM 37.4 °F 33.8 °F 29.1 °F 72% 30.16 in 10.0 mi SE 4.6 mph - N/A   Overcast
6:14 PM 36.0 °F 32.1 °F 29.8 °F 78% 30.17 in 10.0 mi SE 4.6 mph - N/A   Overcast
6:35 PM 35.6 °F 32.8 °F 29.8 °F 80% 30.17 in 10.0 mi SE 3.5 mph - N/A   Overcast
6:55 PM 35.2 °F 31.2 °F 29.5 °F 80% 30.17 in 10.0 mi SSE 4.6 mph - N/A   Overcast
7:14 PM 34.9 °F 32.0 °F 29.5 °F 81% 30.18 in 10.0 mi SSE 3.5 mph - N/A   Overcast
7:35 PM 34.7 °F - 29.3 °F 81% 30.18 in 10.0 mi Calm Calm - N/A   Overcast
7:55 PM 34.7 °F - 29.5 °F 81% 30.18 in 10.0 mi Calm Calm - N/A   Overcast
8:14 PM 34.3 °F - 29.3 °F 82% 30.18 in 10.0 mi Calm Calm - N/A   Overcast
8:35 PM 34.2 °F - 29.3 °F 82% 30.18 in 10.0 mi Calm Calm - N/A   Overcast
8:55 PM 33.8 °F - 29.3 °F 84% 30.19 in 10.0 mi Calm Calm - N/A   Overcast
9:35 PM 33.4 °F - 29.1 °F 84% 30.20 in 10.0 mi Calm Calm - N/A   Overcast
9:54 PM 33.3 °F - 29.3 °F 85% 30.20 in 10.0 mi Calm Calm - N/A   Overcast
10:15 PM 33.4 °F - 29.3 °F 85% 30.20 in 10.0 mi Calm Calm - N/A   Overcast
10:35 PM 32.9 °F - 29.3 °F 87% 30.20 in 10.0 mi Calm Calm - N/A   Overcast
10:54 PM 32.0 °F - 30.0 °F 92% 30.21 in 10.0 mi Calm Calm - N/A   Overcast
11:15 PM 32.0 °F - 30.0 °F 92% 30.21 in 10.0 mi Calm Calm - N/A   Overcast
11:35 PM 32.0 °F - 30.0 °F 92% 30.20 in 10.0 mi Calm Calm - N/A   Overcast
11:54 PM 32.0 °F - 29.8 °F 92% 30.20 in 10.0 mi Calm Calm - N/A   Overcast